Location: Lima
(44.6384°N, 112.5920°W)
Time: 13:23:14
(UTC+00:00)

Oscar 11 - Visible Passes

Search period start: 22 April 2024 00:00
Search period end: 02 May 2024 00:00
Orbit: 605 x 613 km, 97.7° (Epoch: 21 April)

Date Brightness Start Highest point End Pass type
(mag) Time Alt. Az. Time Alt. Az. Time Alt. Az.
22 Apr 8.9 10:44:28 10° NE 10:48:14 29° E 10:51:57 10° SSE visible
23 Apr 8.3 10:58:08 10° NNE 11:02:13 40° E 11:06:14 10° SSE visible
24 Apr 7.6 11:11:54 10° NNE 11:16:09 57° E 11:20:21 10° S visible
25 Apr 7.1 11:25:44 10° NNE 11:30:02 81° E 11:34:19 10° S visible
26 Apr 9.9 10:06:13 10° ENE 10:07:30 11° E 10:08:47 10° ESE visible
26 Apr 7.0 11:39:37 10° N 11:43:55 72° WNW 11:48:09 10° SSW visible
27 Apr 9.7 10:18:54 10° NE 10:21:32 16° E 10:24:08 10° SE visible
28 Apr 9.3 10:32:10 10° NE 10:35:30 22° E 10:38:49 10° SE visible
29 Apr 8.8 10:45:40 10° NNE 10:49:27 30° E 10:53:12 10° SSE visible
30 Apr 8.2 10:59:17 10° NNE 11:03:22 42° E 11:07:24 10° S visible
01 May 7.6 11:12:58 10° NNE 11:17:13 59° E 11:21:26 10° S visible
